Time,TemperatureF,DewpointF,PressureIn,WindDirection,WindDirectionDegrees,WindSpeedMPH,WindSpeedGustMPH,Humidity,HourlyPrecipIn,Conditions,Clouds,dailyrainin,SoftwareType,DateUTC
2013-03-25 00:02:00,41.0,38.0,29.65,WSW,244,2.0,-999.0,88,-99.99,,,-99.99,,2013-03-25 04:02:00,
2013-03-25 00:13:00,41.0,38.0,29.65,WSW,244,2.0,-999.0,88,-99.99,,,-99.99,,2013-03-25 04:13:00,
2013-03-25 00:22:00,40.0,36.0,29.66,WSW,240,2.0,-999.0,84,-99.99,,,-99.99,,2013-03-25 04:22:00,
2013-03-25 00:33:00,40.0,35.0,29.67,WSW,243,4.0,-999.0,81,-99.99,,,-99.99,,2013-03-25 04:33:00,
2013-03-25 00:43:00,40.0,35.0,29.67,WSW,243,4.0,-999.0,81,-99.99,,,-99.99,,2013-03-25 04:43:00,
2013-03-25 00:52:00,39.0,32.0,29.67,SW,219,4.0,-999.0,77,-99.99,,,-99.99,,2013-03-25 04:52:00,
2013-03-25 01:03:00,39.0,32.0,29.67,SW,217,3.0,-999.0,77,-99.99,,,-99.99,,2013-03-25 05:03:00,
2013-03-25 01:12:00,39.0,32.0,29.67,SW,217,3.0,-999.0,77,-99.99,,,-99.99,,2013-03-25 05:12:00,
2013-03-25 01:22:00,38.0,32.0,29.67,WSW,254,1.0,-999.0,78,-99.99,,,-99.99,,2013-03-25 05:22:00,
2013-03-25 01:32:00,38.0,31.0,29.67,WSW,254,2.0,-999.0,77,-99.99,,,-99.99,,2013-03-25 05:32:00,
2013-03-25 01:42:00,38.0,31.0,29.67,WSW,254,2.0,-999.0,77,-99.99,,,-99.99,,2013-03-25 05:42:00,
2013-03-25 01:52:00,38.0,32.0,29.67,WSW,244,1.0,-999.0,78,-99.99,,,-99.99,,2013-03-25 05:52:00,
2013-03-25 02:02:00,38.0,32.0,29.67,WSW,249,1.0,-999.0,78,-99.99,,,-99.99,,2013-03-25 06:02:00,
2013-03-25 02:12:00,38.0,32.0,29.67,WSW,249,1.0,-999.0,78,-99.99,,,-99.99,,2013-03-25 06:12:00,
2013-03-25 02:22:00,38.0,32.0,29.67,WSW,237,3.0,-999.0,79,-99.99,,,-99.99,,2013-03-25 06:22:00,
2013-03-25 02:32:00,37.0,30.0,29.68,SW,234,2.0,-999.0,77,-99.99,,,-99.99,,2013-03-25 06:32:00,
2013-03-25 02:42:00,37.0,30.0,29.68,SW,234,2.0,-999.0,77,-99.99,,,-99.99,,2013-03-25 06:42:00,
2013-03-25 02:52:00,37.0,30.0,29.68,WSW,246,2.0,-999.0,77,-99.99,,,-99.99,,2013-03-25 06:52:00,
2013-03-25 03:02:00,37.0,30.0,29.68,SW,227,2.0,-999.0,76,-99.99,,,-99.99,,2013-03-25 07:02:00,
2013-03-25 03:13:00,37.0,30.0,29.68,SW,227,2.0,-999.0,76,-99.99,,,-99.99,,2013-03-25 07:13:00,
2013-03-25 03:22:00,37.0,30.0,29.69,WSW,252,1.0,-999.0,77,-99.99,,,-99.99,,2013-03-25 07:22:00,
2013-03-25 03:32:00,37.0,30.0,29.69,WSW,250,1.0,-999.0,77,-99.99,,,-99.99,,2013-03-25 07:32:00,
2013-03-25 03:42:00,37.0,30.0,29.69,WSW,250,1.0,-999.0,77,-99.99,,,-99.99,,2013-03-25 07:42:00,
2013-03-25 03:52:00,37.0,30.0,29.69,WSW,254,1.0,-999.0,77,-99.99,,,-99.99,,2013-03-25 07:52:00,
2013-03-25 04:03:00,37.0,30.0,29.69,WSW,254,1.0,-999.0,77,-99.99,,,-99.99,,2013-03-25 08:03:00,
2013-03-25 04:12:00,37.0,30.0,29.69,WSW,254,1.0,-999.0,77,-99.99,,,-99.99,,2013-03-25 08:12:00,
2013-03-25 04:23:00,36.0,29.0,29.70,WSW,250,2.0,-999.0,74,-99.99,,,-99.99,,2013-03-25 08:23:00,
2013-03-25 04:32:00,35.0,28.0,29.70,West,270,2.0,-999.0,74,-99.99,,,-99.99,,2013-03-25 08:32:00,
2013-03-25 04:43:00,35.0,28.0,29.70,West,270,2.0,-999.0,74,-99.99,,,-99.99,,2013-03-25 08:43:00,
2013-03-25 04:52:00,35.0,27.0,29.70,West,263,2.0,-999.0,73,-99.99,,,-99.99,,2013-03-25 08:52:00,
2013-03-25 05:02:00,35.0,28.0,29.70,WSW,256,2.0,-999.0,74,-99.99,,,-99.99,,2013-03-25 09:02:00,
2013-03-25 05:13:00,35.0,28.0,29.70,WSW,256,2.0,-999.0,74,-99.99,,,-99.99,,2013-03-25 09:13:00,
2013-03-25 05:22:00,34.0,27.0,29.71,SW,217,2.0,-999.0,74,-99.99,,,-99.99,,2013-03-25 09:22:00,
2013-03-25 05:33:00,34.0,27.0,29.71,West,267,2.0,-999.0,75,-99.99,,,-99.99,,2013-03-25 09:33:00,
2013-03-25 05:43:00,34.0,27.0,29.71,West,267,2.0,-999.0,75,-99.99,,,-99.99,,2013-03-25 09:43:00,
2013-03-25 05:52:00,34.0,27.0,29.71,WNW,289,2.0,-999.0,75,-99.99,,,-99.99,,2013-03-25 09:52:00,
2013-03-25 06:03:00,34.0,27.0,29.72,West,259,2.0,-999.0,74,-99.99,,,-99.99,,2013-03-25 10:03:00,
2013-03-25 06:12:00,34.0,27.0,29.72,West,259,2.0,-999.0,74,-99.99,,,-99.99,,2013-03-25 10:12:00,
2013-03-25 06:22:00,34.0,26.0,29.72,West,274,3.0,-999.0,72,-99.99,,,-99.99,,2013-03-25 10:22:00,
2013-03-25 06:33:00,34.0,26.0,29.72,WSW,252,3.0,-999.0,71,-99.99,,,-99.99,,2013-03-25 10:33:00,
2013-03-25 06:42:00,34.0,26.0,29.72,WSW,252,3.0,-999.0,71,-99.99,,,-99.99,,2013-03-25 10:42:00,
2013-03-25 06:53:00,34.0,26.0,29.73,West,269,2.0,-999.0,73,-99.99,,,-99.99,,2013-03-25 10:53:00,
2013-03-25 07:03:00,34.0,27.0,29.74,West,269,1.0,-999.0,76,-99.99,,,-99.99,,2013-03-25 11:03:00,
2013-03-25 07:12:00,33.0,26.0,29.74,West,281,2.0,-999.0,74,-99.99,,,-99.99,,2013-03-25 11:12:00,
2013-03-25 07:23:00,33.0,26.0,29.74,West,281,2.0,-999.0,74,-99.99,,,-99.99,,2013-03-25 11:23:00,
2013-03-25 07:32:00,33.0,26.0,29.75,SSW,212,2.0,-999.0,75,-99.99,,,-99.99,,2013-03-25 11:32:00,
2013-03-25 07:42:00,33.0,26.0,29.75,SSW,212,2.0,-999.0,75,-99.99,,,-99.99,,2013-03-25 11:42:00,
2013-03-25 07:52:00,32.0,25.0,29.75,West,266,2.0,-999.0,76,-99.99,,,-99.99,,2013-03-25 11:52:00,
2013-03-25 08:03:00,32.0,26.0,29.76,WSW,257,1.0,-999.0,77,-99.99,,,-99.99,,2013-03-25 12:03:00,
2013-03-25 08:13:00,32.0,26.0,29.76,West,267,1.0,-999.0,77,-99.99,,,-99.99,,2013-03-25 12:13:00,
2013-03-25 08:23:00,32.0,26.0,29.76,West,267,1.0,-999.0,77,-99.99,,,-99.99,,2013-03-25 12:23:00,
2013-03-25 08:32:00,32.0,25.0,29.76,West,261,1.0,-999.0,76,-99.99,,,-99.99,,2013-03-25 12:32:00,
2013-03-25 08:43:00,32.0,25.0,29.76,West,261,1.0,-999.0,76,-99.99,,,-99.99,,2013-03-25 12:43:00,
2013-03-25 08:53:00,32.0,25.0,29.76,West,261,1.0,-999.0,76,-99.99,,,-99.99,,2013-03-25 12:53:00,
2013-03-25 09:03:00,32.0,24.0,29.77,West,265,3.0,-999.0,72,-99.99,,,-99.99,,2013-03-25 13:03:00,
2013-03-25 09:13:00,32.0,24.0,29.77,West,265,3.0,-999.0,72,-99.99,,,-99.99,,2013-03-25 13:13:00,
2013-03-25 09:23:00,32.0,24.0,29.78,WSW,240,2.0,-999.0,72,-99.99,,,-99.99,,2013-03-25 13:23:00,
2013-03-25 09:32:00,32.0,24.0,29.79,NW,307,4.0,-999.0,72,-99.99,,,-99.99,,2013-03-25 13:32:00,
2013-03-25 09:43:00,32.0,24.0,29.79,NW,307,4.0,-999.0,72,-99.99,,,-99.99,,2013-03-25 13:43:00,
2013-03-25 09:52:00,33.0,24.0,29.80,West,267,2.0,-999.0,70,-99.99,,,-99.99,,2013-03-25 13:52:00,
2013-03-25 10:03:00,33.0,24.0,29.80,WSW,242,2.0,-999.0,69,-99.99,,,-99.99,,2013-03-25 14:03:00,
2013-03-25 10:12:00,33.0,24.0,29.80,WSW,242,2.0,-999.0,69,-99.99,,,-99.99,,2013-03-25 14:12:00,
2013-03-25 10:22:00,33.0,24.0,29.80,WSW,242,2.0,-999.0,69,-99.99,,,-99.99,,2013-03-25 14:22:00,
2013-03-25 10:32:00,33.0,24.0,29.80,WSW,242,2.0,-999.0,69,-99.99,,,-99.99,,2013-03-25 14:32:00,
2013-03-25 10:53:00,33.0,24.0,29.83,West,265,2.0,-999.0,70,-99.99,,,-99.99,,2013-03-25 14:53:00,
2013-03-25 11:03:00,33.0,24.0,29.84,WSW,241,2.0,-999.0,70,-99.99,,,-99.99,,2013-03-25 15:03:00,
2013-03-25 11:13:00,33.0,24.0,29.84,WSW,241,2.0,-999.0,70,-99.99,,,-99.99,,2013-03-25 15:13:00,
2013-03-25 11:23:00,33.0,24.0,29.85,West,269,2.0,-999.0,70,-99.99,,,-99.99,,2013-03-25 15:23:00,
2013-03-25 11:33:00,33.0,24.0,29.85,West,265,2.0,-999.0,69,-99.99,,,-99.99,,2013-03-25 15:33:00,
2013-03-25 11:43:00,33.0,24.0,29.85,West,265,2.0,-999.0,69,-99.99,,,-99.99,,2013-03-25 15:43:00,
2013-03-25 11:53:00,34.0,25.0,29.86,West,275,3.0,-999.0,68,-99.99,,,-99.99,,2013-03-25 15:53:00,
2013-03-25 12:03:00,33.0,25.0,29.86,West,271,2.0,-999.0,71,-99.99,,,-99.99,,2013-03-25 16:03:00,
2013-03-25 12:12:00,33.0,25.0,29.86,West,271,2.0,-999.0,71,-99.99,,,-99.99,,2013-03-25 16:12:00,
2013-03-25 12:23:00,33.0,25.0,29.86,West,271,2.0,-999.0,71,-99.99,,,-99.99,,2013-03-25 16:23:00,
2013-03-25 12:33:00,34.0,24.0,29.87,WSW,258,2.0,-999.0,66,-99.99,,,-99.99,,2013-03-25 16:33:00,
2013-03-25 12:43:00,34.0,24.0,29.87,WSW,258,2.0,-999.0,66,-99.99,,,-99.99,,2013-03-25 16:43:00,
2013-03-25 12:53:00,35.0,26.0,29.87,West,264,2.0,-999.0,68,-99.99,,,-99.99,,2013-03-25 16:53:00,
2013-03-25 13:03:00,34.0,24.0,29.88,WSW,256,5.0,-999.0,66,-99.99,,,-99.99,,2013-03-25 17:03:00,
2013-03-25 13:13:00,34.0,24.0,29.88,WSW,256,5.0,-999.0,66,-99.99,,,-99.99,,2013-03-25 17:13:00,
2013-03-25 13:23:00,35.0,25.0,29.88,West,263,3.0,-999.0,66,-99.99,,,-99.99,,2013-03-25 17:23:00,
2013-03-25 13:33:00,35.0,24.0,29.88,WNW,286,2.0,-999.0,65,-99.99,,,-99.99,,2013-03-25 17:33:00,
2013-03-25 13:43:00,35.0,24.0,29.88,WNW,286,2.0,-999.0,65,-99.99,,,-99.99,,2013-03-25 17:43:00,
2013-03-25 13:52:00,35.0,25.0,29.88,WSW,244,1.0,-999.0,67,-99.99,,,-99.99,,2013-03-25 17:52:00,
2013-03-25 14:04:00,35.0,25.0,29.88,WSW,250,3.0,-999.0,67,-99.99,,,-99.99,,2013-03-25 18:04:00,
2013-03-25 14:13:00,35.0,25.0,29.88,WSW,250,3.0,-999.0,67,-99.99,,,-99.99,,2013-03-25 18:13:00,
2013-03-25 14:23:00,35.0,25.0,29.88,WSW,252,2.0,-999.0,66,-99.99,,,-99.99,,2013-03-25 18:23:00,
2013-03-25 14:33:00,35.0,24.0,29.89,WNW,284,3.0,-999.0,65,-99.99,,,-99.99,,2013-03-25 18:33:00,
2013-03-25 14:43:00,35.0,24.0,29.89,WNW,284,3.0,-999.0,65,-99.99,,,-99.99,,2013-03-25 18:43:00,
2013-03-25 14:52:00,35.0,24.0,29.88,West,275,3.0,-999.0,64,-99.99,,,-99.99,,2013-03-25 18:52:00,
2013-03-25 15:03:00,35.0,24.0,29.89,SW,223,3.0,-999.0,65,-99.99,,,-99.99,,2013-03-25 19:03:00,
2013-03-25 15:13:00,35.0,24.0,29.89,SW,223,3.0,-999.0,65,-99.99,,,-99.99,,2013-03-25 19:13:00,
2013-03-25 15:23:00,35.0,25.0,29.89,WSW,257,3.0,-999.0,66,-99.99,,,-99.99,,2013-03-25 19:23:00,
2013-03-25 15:33:00,35.0,25.0,29.89,West,259,2.0,-999.0,66,-99.99,,,-99.99,,2013-03-25 19:33:00,
2013-03-25 15:43:00,35.0,25.0,29.89,West,259,2.0,-999.0,66,-99.99,,,-99.99,,2013-03-25 19:43:00,
2013-03-25 15:52:00,35.0,24.0,29.89,SW,217,2.0,-999.0,65,-99.99,,,-99.99,,2013-03-25 19:52:00,
2013-03-25 16:02:00,34.0,24.0,29.90,West,272,4.0,-999.0,67,-99.99,,,-99.99,,2013-03-25 20:02:00,
2013-03-25 16:12:00,34.0,24.0,29.90,West,272,4.0,-999.0,67,-99.99,,,-99.99,,2013-03-25 20:12:00,
2013-03-25 16:22:00,34.0,25.0,29.90,WSW,242,2.0,-999.0,68,-99.99,,,-99.99,,2013-03-25 20:22:00,
2013-03-25 16:32:00,35.0,25.0,29.90,West,267,3.0,-999.0,66,-99.99,,,-99.99,,2013-03-25 20:32:00,
2013-03-25 16:42:00,35.0,25.0,29.90,West,267,3.0,-999.0,66,-99.99,,,-99.99,,2013-03-25 20:42:00,
2013-03-25 16:52:00,35.0,24.0,29.90,West,276,2.0,-999.0,65,-99.99,,,-99.99,,2013-03-25 20:52:00,
2013-03-25 17:03:00,35.0,24.0,29.90,West,276,2.0,-999.0,65,-99.99,,,-99.99,,2013-03-25 21:03:00,
2013-03-25 17:13:00,35.0,24.0,29.90,West,276,2.0,-999.0,65,-99.99,,,-99.99,,2013-03-25 21:13:00,
2013-03-25 17:22:00,35.0,24.0,29.92,WNW,284,2.0,-999.0,64,-99.99,,,-99.99,,2013-03-25 21:22:00,
2013-03-25 17:33:00,36.0,24.0,29.93,WSW,244,3.0,-999.0,62,-99.99,,,-99.99,,2013-03-25 21:33:00,
2013-03-25 17:43:00,36.0,24.0,29.93,WSW,244,3.0,-999.0,62,-99.99,,,-99.99,,2013-03-25 21:43:00,
2013-03-25 17:52:00,35.0,25.0,29.93,West,265,3.0,-999.0,66,-99.99,,,-99.99,,2013-03-25 21:52:00,
2013-03-25 18:03:00,35.0,24.0,29.94,West,273,2.0,-999.0,65,-99.99,,,-99.99,,2013-03-25 22:03:00,
2013-03-25 18:13:00,35.0,24.0,29.94,West,273,2.0,-999.0,65,-99.99,,,-99.99,,2013-03-25 22:13:00,
2013-03-25 18:23:00,34.0,23.0,29.95,WSW,257,3.0,-999.0,64,-99.99,,,-99.99,,2013-03-25 22:23:00,
2013-03-25 18:33:00,34.0,23.0,29.95,WSW,244,3.0,-999.0,65,-99.99,,,-99.99,,2013-03-25 22:33:00,
2013-03-25 18:42:00,34.0,23.0,29.95,WSW,244,3.0,-999.0,65,-99.99,,,-99.99,,2013-03-25 22:42:00,
2013-03-25 18:52:00,34.0,23.0,29.96,WSW,254,3.0,-999.0,65,-99.99,,,-99.99,,2013-03-25 22:52:00,
2013-03-25 19:03:00,34.0,23.0,29.96,WSW,240,3.0,-999.0,65,-99.99,,,-99.99,,2013-03-25 23:03:00,
2013-03-25 19:12:00,34.0,23.0,29.96,WSW,240,3.0,-999.0,65,-99.99,,,-99.99,,2013-03-25 23:12:00,
2013-03-25 19:23:00,34.0,23.0,29.97,West,272,3.0,-999.0,64,-99.99,,,-99.99,,2013-03-25 23:23:00,
2013-03-25 19:33:00,33.0,24.0,29.98,West,277,4.0,-999.0,68,-99.99,,,-99.99,,2013-03-25 23:33:00,
2013-03-25 19:43:00,33.0,24.0,29.98,West,277,4.0,-999.0,68,-99.99,,,-99.99,,2013-03-25 23:43:00,
2013-03-25 19:52:00,33.0,22.0,29.98,WSW,256,2.0,-999.0,64,-99.99,,,-99.99,,2013-03-25 23:52:00,
2013-03-25 20:02:00,33.0,23.0,29.99,West,265,2.0,-999.0,66,-99.99,,,-99.99,,2013-03-26 00:02:00,
2013-03-25 20:12:00,33.0,23.0,29.99,West,265,2.0,-999.0,66,-99.99,,,-99.99,,2013-03-26 00:12:00,
2013-03-25 20:22:00,33.0,23.0,30.00,West,263,2.0,-999.0,67,-99.99,,,-99.99,,2013-03-26 00:22:00,
2013-03-25 20:32:00,32.0,23.0,30.01,West,280,1.0,-999.0,68,-99.99,,,-99.99,,2013-03-26 00:32:00,
2013-03-25 20:42:00,32.0,23.0,30.01,West,280,1.0,-999.0,68,-99.99,,,-99.99,,2013-03-26 00:42:00,
2013-03-25 20:52:00,32.0,23.0,30.01,West,270,1.0,-999.0,69,-99.99,,,-99.99,,2013-03-26 00:52:00,
2013-03-25 21:02:00,32.0,23.0,30.01,West,270,1.0,-999.0,69,-99.99,,,-99.99,,2013-03-26 01:02:00,
2013-03-25 21:12:00,32.0,23.0,30.01,West,270,1.0,-999.0,69,-99.99,,,-99.99,,2013-03-26 01:12:00,
2013-03-25 21:23:00,32.0,23.0,30.03,West,271,1.0,-999.0,69,-99.99,,,-99.99,,2013-03-26 01:23:00,
2013-03-25 21:33:00,32.0,23.0,30.03,NNE,15,1.0,-999.0,69,-99.99,,,-99.99,,2013-03-26 01:33:00,
2013-03-25 21:42:00,32.0,23.0,30.03,NNE,15,1.0,-999.0,69,-99.99,,,-99.99,,2013-03-26 01:42:00,
2013-03-25 21:52:00,32.0,23.0,30.03,West,269,1.0,-999.0,70,-99.99,,,-99.99,,2013-03-26 01:52:00,
2013-03-25 22:02:00,31.0,22.0,30.04,West,267,2.0,-999.0,69,-99.99,,,-99.99,,2013-03-26 02:02:00,
2013-03-25 22:12:00,31.0,22.0,30.04,West,267,2.0,-999.0,69,-99.99,,,-99.99,,2013-03-26 02:12:00,
2013-03-25 22:22:00,31.0,22.0,30.04,WSW,244,2.0,-999.0,70,-99.99,,,-99.99,,2013-03-26 02:22:00,
2013-03-25 22:32:00,31.0,22.0,30.04,West,271,2.0,-999.0,70,-99.99,,,-99.99,,2013-03-26 02:32:00,
2013-03-25 22:43:00,31.0,22.0,30.04,West,271,2.0,-999.0,70,-99.99,,,-99.99,,2013-03-26 02:43:00,
2013-03-25 22:52:00,31.0,22.0,30.05,WSW,244,1.0,-999.0,70,-99.99,,,-99.99,,2013-03-26 02:52:00,
2013-03-25 23:02:00,31.0,22.0,30.05,West,260,2.0,-999.0,69,-99.99,,,-99.99,,2013-03-26 03:02:00,
2013-03-25 23:12:00,31.0,22.0,30.05,West,260,2.0,-999.0,69,-99.99,,,-99.99,,2013-03-26 03:12:00,
2013-03-25 23:22:00,31.0,22.0,30.05,WSW,252,2.0,-999.0,69,-99.99,,,-99.99,,2013-03-26 03:22:00,
2013-03-25 23:34:00,31.0,22.0,30.06,WNW,285,2.0,-999.0,69,-99.99,,,-99.99,,2013-03-26 03:34:00,
2013-03-25 23:42:00,31.0,22.0,30.06,WNW,285,2.0,-999.0,69,-99.99,,,-99.99,,2013-03-26 03:42:00,
2013-03-25 23:52:00,31.0,22.0,30.06,West,272,3.0,-999.0,68,-99.99,,,-99.99,,2013-03-26 03:52:00,